Ft Lauderdale, FL

1:59 PM EDT on July 27, 2017 (GMT -0400)
Fort Lauderdale-Hollywood International

Weather History for KFLL - July, 2012

Change the Weather History Date:

Wednesday, July 11, 2012

  Actual Average Record
Temperature  
Mean Temperature 78 °F 84 °F  
Max Temperature 83 °F 90 °F 95 °F (1969)
Min Temperature 73 °F 78 °F 68 °F (1917)
Degree Days  
Heating Degree Days 0 0  
Month to date heating degree days 0 0  
Since 1 June heating degree days 0 0  
Since 1 July heating degree days 0 0  
Cooling Degree Days 13 19  
Month to date cooling degree days 202 209  
Year to date cooling degree days 2237 2170  
Since 1 June cooling degree days 732 752  
Growing Degree Days 28 (Base 50)    
Moisture  
Dew Point 73 °F    
Average Humidity 85    
Maximum Humidity 100    
Minimum Humidity 69    
Precipitation  
Precipitation 2.24 in 0.21 in 2.24 in (2012)
Month to date precipitation 2.78 2.40  
Year to date precipitation 25.98 30.05  
Snow  
Snow 0.00 in - - ()
Month to date snowfall 0.0  
Since 1 June snowfall 0.0  
Since 1 July snowfall 0.0  
Snow Depth 0.00 in    
Sea Level Pressure  
Sea Level Pressure 30.01 in    
Wind  
Wind Speed 6 mph (East)    
Max Wind Speed 16 mph    
Max Gust Speed 18 mph    
Visibility 8 miles    
Events Fog , Rain , Thunderstorm    
T = Trace of Precipitation, MM = Missing Value Source: NWS Daily Summary

Daily Weather History Graph

Daily Weather History Graph

Search for Another Location

Airport or City:

Trip Planner

Search our weather history database for the weather conditions in past years. The results will help you decide how hot, cold, wet, or windy it might be!

Date:

Astronomy

Jul. 11, 2012 Rise Set
Actual Time 6:36 AM EDT 8:15 PM EDT
Civil Twilight 6:10 AM EDT 8:41 PM EDT
Nautical Twilight 5:39 AM EDT 9:12 PM EDT
Astronomical Twilight 5:07 AM EDT 9:44 PM EDT
Moon 12:51 AM EDT (7/11) 2:03 PM EDT (7/11)
Length of Visible Light 14h 30m
Length of Day
13h 39m
Last Quarter, 44% of the Moon is Illuminated
Jul 11
Last Quarter
Jul 19
New
Jul 26
First Quarter
Aug 1
Full
Aug 9
Last Quarter

Hourly Weather History & Observations

Time (EDT) Temp. Heat Index Dew Point Humidity Pressure Visibility Wind Dir Wind Speed Gust Speed Precip Events Conditions
12:53 AM 82.0 °F 88.6 °F 75.0 °F 79% 30.02 in 10.0 mi ENE 3.5 mph - N/A   Partly Cloudy
1:40 AM 80.6 °F 86.2 °F 75.2 °F 84% 30.01 in 10.0 mi North 4.6 mph - N/A   Mostly Cloudy
1:53 AM 81.0 °F 86.2 °F 73.9 °F 79% 30.01 in 8.0 mi NNE 10.4 mph - 0.00 in Rain Light Rain
2:25 AM 78.8 °F - 73.4 °F 83% 30.01 in 5.0 mi NNE 9.2 mph - 0.18 in Rain , Thunderstorm Thunderstorms and Rain
2:29 AM 75.2 °F - 73.4 °F 94% 30.01 in 1.0 mi NNE 13.8 mph - 0.41 in Rain , Thunderstorm Heavy Thunderstorms and Rain
2:38 AM 73.4 °F - 71.6 °F 94% 30.01 in 0.5 mi East 11.5 mph 17.3 mph 0.82 in Fog , Rain , Thunderstorm Heavy Thunderstorms and Rain
2:46 AM 73.4 °F - 71.6 °F 94% 30.01 in 1.5 mi ENE 4.6 mph 18.4 mph 1.32 in Rain , Thunderstorm Heavy Thunderstorms and Rain
2:53 AM 73.9 °F - 72.0 °F 93% 30.01 in 1.5 mi NNE 9.2 mph - 1.47 in Rain , Thunderstorm Heavy Thunderstorms and Rain
3:16 AM 73.4 °F - 73.4 °F 100% 29.99 in 3.0 mi NW 4.6 mph - 0.42 in Rain Rain
3:24 AM 75.2 °F - 75.2 °F 100% 30.00 in 5.0 mi SW 3.5 mph - 0.44 in Rain Rain
3:53 AM 75.9 °F - 75.0 °F 97% 29.98 in 10.0 mi NE 5.8 mph - 0.48 in   Scattered Clouds
4:53 AM 75.9 °F - 75.0 °F 97% 29.99 in 10.0 mi NNW 4.6 mph - N/A   Scattered Clouds
5:17 AM 75.2 °F - 75.2 °F 100% 30.00 in 10.0 mi Calm Calm - N/A Thunderstorm Thunderstorm
5:32 AM 75.2 °F - 75.2 °F 100% 30.00 in 10.0 mi Calm Calm - N/A Thunderstorm Thunderstorm
5:40 AM 75.2 °F - 73.4 °F 94% 30.01 in 10.0 mi SSE 10.4 mph - N/A Thunderstorm Thunderstorm
5:47 AM 75.2 °F - 73.4 °F 94% 30.01 in 10.0 mi South 5.8 mph - N/A   Mostly Cloudy
5:53 AM 75.9 °F - 73.9 °F 94% 30.02 in 8.0 mi South 8.1 mph - 0.00 in Rain Light Rain
6:09 AM 75.2 °F - 73.4 °F 94% 30.03 in 8.0 mi SE 5.8 mph - 0.01 in Rain , Thunderstorm Light Thunderstorms and Rain
6:53 AM 75.0 °F - 75.0 °F 100% 30.06 in 7.0 mi SSE 5.8 mph - 0.09 in Rain Light Rain
7:05 AM 75.2 °F - 75.2 °F 100% 30.04 in 8.0 mi Calm Calm - 0.01 in Rain Light Rain
7:53 AM 75.0 °F - 75.0 °F 100% 30.05 in 7.0 mi Calm Calm - 0.07 in Rain Light Rain
8:53 AM 75.0 °F - 75.0 °F 100% 30.06 in 5.0 mi NNW 3.5 mph - 0.07 in Rain Light Rain
9:53 AM 75.9 °F - 73.9 °F 94% 30.06 in 10.0 mi East 5.8 mph - 0.03 in Rain Light Rain
10:53 AM 77.0 °F - 75.0 °F 94% 30.06 in 10.0 mi East 4.6 mph - 0.02 in Rain Light Rain
11:53 AM 78.1 °F - 75.0 °F 90% 30.07 in 10.0 mi SE 9.2 mph - 0.01 in Rain Light Rain
12:53 PM 79.0 °F - 73.0 °F 82% 30.04 in 10.0 mi SE 6.9 mph - 0.00 in   Scattered Clouds
1:53 PM 81.0 °F 85.2 °F 72.0 °F 74% 30.01 in 10.0 mi NNE 6.9 mph - N/A   Scattered Clouds
2:53 PM 82.0 °F 86.7 °F 72.0 °F 71% 29.99 in 10.0 mi East 8.1 mph - N/A   Partly Cloudy
3:53 PM 82.0 °F 87.4 °F 73.0 °F 74% 30.01 in 10.0 mi East 11.5 mph - N/A   Partly Cloudy
3:55 PM 80.6 °F 85.4 °F 73.4 °F 79% 30.00 in 10.0 mi East 11.5 mph - N/A   Mostly Cloudy
4:02 PM 82.4 °F 87.2 °F 71.6 °F 70% 30.00 in 10.0 mi East 8.1 mph - N/A   Scattered Clouds
4:53 PM 82.9 °F 87.5 °F 71.1 °F 67% 29.98 in 10.0 mi East 5.8 mph - N/A   Scattered Clouds
5:53 PM 82.0 °F 86.3 °F 71.1 °F 69% 29.96 in 10.0 mi East 5.8 mph - N/A   Scattered Clouds
6:53 PM 82.0 °F 86.3 °F 71.1 °F 69% 29.98 in 10.0 mi ESE 11.5 mph - N/A   Mostly Cloudy
7:53 PM 81.0 °F 84.9 °F 71.1 °F 72% 30.00 in 10.0 mi ESE 10.4 mph - N/A   Mostly Cloudy
8:53 PM 81.0 °F 84.9 °F 71.1 °F 72% 30.00 in 10.0 mi ESE 6.9 mph - N/A   Mostly Cloudy
9:53 PM 81.0 °F 85.2 °F 72.0 °F 74% 30.01 in 10.0 mi SSE 6.9 mph - N/A   Mostly Cloudy
10:53 PM 80.1 °F 83.2 °F 70.0 °F 71% 30.03 in 10.0 mi South 4.6 mph - N/A   Mostly Cloudy
11:53 PM 80.1 °F 83.2 °F 70.0 °F 71% 30.02 in 10.0 mi Calm Calm - N/A   Mostly Cloudy